Regional Weather Roundup
Issued by NWS Charleston, SC

Current Version | Previous Version | Text Only | Print | Product List | Glossary Off
Versions: 1 2 3 4 5 6 7 8 9 10 11 12 13 14 15 16 17 18 19 20 21 22 23 24 25 26 27 28 29 30 31 32 33 34 35 36 37 38 39 40 41 42 43 44 45 46 47 48 49 50
000 ASUS42 KCHS 232312 RWRCHS REGIONAL WEATHER ROUNDUP NATIONAL WEATHER SERVICE CHARLESTON SC 700 PM EDT MON OCT 23 2017 NOTE: "FAIR" INDICATES FEW OR NO CLOUDS BELOW 12,000 FEET WITH NO SIGNIFICANT WEATHER AND/OR OBSTRUCTIONS TO VISIBILITY. NOT ALL STATIONS ARE QUALITY CONTROLLED. USE DATA WITH CAUTION... ESPECIALLY DEWPOINT OBSERVATIONS. SCZ027-030-031-034>040-042>050-240000- ...SOUTHEAST SOUTH CAROLINA... CITY SKY/WX TMP DP RH WIND PRES REMARKS N CHARLESTON CLOUDY 76 73 91 S20G25 29.85F WATERFRONT PRK NOT AVBL JOHNS ISLAND MOCLDY 77 73 88 S16G23 29.86F FOG PINOPOLIS NOT AVBL MONCKS CORNER DRIZZLE 73 72 94 S13G22 29.84F SUMMERVILLE CLOUDY 73 72 94 S8G20 29.83F BEAUFORT MCAS TSTM 76 76 100 MISG 29.82F VSB 3/4 BEAUFORT ARPT TSTM 75 73 94 S15G29 29.82F HILTON HEAD IS TSTM 77 73 88 S13G23 29.86F WALTERBORO RAIN 73 72 94 S17 29.82F ALLENDALE N/A 75 73 94 VRB5 N/A ...SOUTHERN MIDLANDS AND PEE DEE... CITY SKY/WX TMP DP RH WIND PRES REMARKS GEORGETOWN FAIR 73 73 100 SE12G21 29.88F KINGSTREE CLOUDY 73 72 94 E10G16 29.83F ORANGEBURG HVY RAIN 73 70 90 SW9 29.81R FOG BARNWELL N/A 73 72 94 W3 29.83R AIKEN FAIR 64 64 100 SW6 29.86S MANNING TSTM 73 72 94 MISG 29.81F COLUMBIA CLOUDY 70 69 97 SW6 29.82R SUMTER HVY RAIN 73 72 94 S8 29.80R FOG FLORENCE CLOUDY 73 73 100 S12 29.84F MYRTLE BEACH CLOUDY 77 72 84 S20G26 29.90S N MYRTLE BEACH MOCLDY 77 71 82 S13G26 29.90F $$ GAZ063-065-086>088-099>101-113>116-118-119-134>141-150-240000- ...SOUTHEAST GEORGIA... CITY SKY/WX TMP DP RH WIND PRES REMARKS SAVANNAH ARPT MOCLDY 75 73 93 SW15G24 29.86R HUNTER AAF MOCLDY 76 73 92 S16G28 29.84R FORT STEWART CLOUDY 75 72 88 S9 29.85S STATESBORO CLOUDY 74 73 96 W6 29.85R SYLVANIA CLOUDY 74 74 98 W3 29.85R CLAXTON FAIR 74 72 95 CALM 29.87R ...CSRA...CENTRAL AND FAR SOUTHEAST GEORGIA... CITY SKY/WX TMP DP RH WIND PRES REMARKS THOMSON CLEAR 65 64 94 NW5 29.89R FOG AUGUSTA-BUSH CLEAR 69 65 86 W3 29.83R AUGUSTA-DANIEL CLEAR 69 65 86 CALM 29.84S SWAINSBORO FAIR 70 70 100 W3 29.87S VIDALIA CLEAR 72 70 94 CALM 29.87R EASTMAN FAIR 72 55 55 W3 29.90R HAZLEHURST FAIR 74 70 87 CALM 29.86S ALMA PTCLDY 75 72 90 S5 29.86S WAYCROSS PTCLDY 75 72 90 SW5 29.88R JESUP NOT AVBL BAXLEY MOCLDY 73 73 100 CALM 29.86S BRUNSWICK CLOUDY 77 72 83 SW6 29.88F SAINT SIMONS MOCLDY 77 75 93 S5 29.87F $$ SCZ027-028-034-036>038-045-046-048>050-GAZ119-141-240000- ...LAKE AND SUPPLEMENTAL COASTAL OBSERVATIONS... STATION/POSITION TIME TEMP WIND PRES WAVE SWELL AIR SEA DIR/SP/G HT/PER HT/PER/DIR (UTC) (F) (DEG/KT/KT) (MB) (FT/S) (FT/S/D) WINYAH BAY NOT AVBL LAKE MURRAY 2220 67 280/ 6/ 12 1009.1R ACE BASIN NERRS 2145 77 150/ 4 1011.0 FORT PULASKI 2248 74 74 230/ 16/ 25 1011.8R SAPELO ISLAND NOT AVBL $$ ANZ835-935-AMZ111-154-330-350-352-354-370-450-454-472-240000- ...C-MAN AND BUOY OBSERVATIONS... STATION/POSITION TIME TEMP WIND PRES WAVE SWELL AIR SEA DIR/SP/G HT/PER HT/PER/DIR (UTC) (F) (DEG/KT/KT) (MB) (FT/S) (FT/S/D) BUOY 41004 2250 80 80 170/ 25/ 29 1012.0F 9/ 7 BUOY 41008 NOT AVBL FOLLY BEACH CMAN 2200 77 160/ 20/ 23 1011.9F CAPERS NEARSHORE 2208 75 73 170/ 17/ 23 1011.2F FRIPP NEARSHORE 2208 77 170/ 17/ 25 N/A STATION/POSITION TIME TEMP WIND PRES WAVE SWELL AIR SEA DIR/SP/G HT/PER HT/PER/DIR (UTC) (F) (DEG/KT/KT) (MB) (FT/S) (FT/S/D) 5E ST. MARYS GA 2300 77 N/A 5/ 6 FRYING PAN BUOY 2250 79 78 160/ 23/ 27 1013.3F 7/ 6 BUOY 41025 2250 79 80 150/ 21/ 25 1016.4F 6/ 6 2/100/ 9 CAPE LOOKOUT NC 2200 76 140/ 20/ 22 1015.3F BUOY 41002 2250 78 80 130/ 16/ 19 1018.3R 5/ 6 2/ 80/ 8 BUOY 41010 NOT AVBL ST AUGUSTINE FL 2300 79 79 160/ 15/ 16 1013.2R $$

USA.gov is the U.S. government's official web portal to all federal, state and local government web resources and services.